Showing default

CYGFM04, 41885

Orbit data source: Space-Track

CYGFM04, 41885 is an American payload satellite in LEO that was launched on Thu, 15 Dec 2016 UTC via a PEGASUS XL launch vehicle from the Pegasus Launch, Eastern Range Air Space (ERAS). Payload-class satellites include a variety of spacecraft equipped with specific instruments for various scientific and technological missions. These include communications satellites like Starlink; space stations such as the ISS; scientific satellites like the Hubble; Earth observation satellites from companies like Planet Labs, Umbra, and HawkEye 360; GPS; miniature CubeSats for education and research; and military/defense satellites.

Loading next visibility...
Identifier
41885, 2016-078B
Orbit
LEO
Country
Flag of USUS
Related business
Manufacturer
SST-US
Mission
Extended mission Civil Science
Bus & Motor
CYGNSS, Unknown motor
Mass
29 kg wet, 29 kg dry
Launch date (UTC)
2016-12-15 (9 years ago)
Launch vehicle
PEGASUS XL
Launch site
Pegasus Launch, Eastern Range Air Space (ERAS)
Object type
Payload
Rocket body
Debris
Shape & HBR
Half Hex Cyl + 2 Pan, 0.8 m
Radar Cross Section
0.450 m², Medium (>0.1 m² and < 1m²)

Expand to show TLE details & history
Last TLE update: 1 day ago

TLE from 1 day ago
0 CYGFM04
1 41885U 16078B   25241.97760472  .00020150  00000-0  41869-3 0  9993
2 41885  34.9368 346.0616 0008236 309.9510  50.0486 15.44691884483708
Epoch: 2025-08-29T23:27Z
TLE epoch observation values (Epoch: 2025-08-29T23:27:45.047Z)
Latitude
-0.00005°
Longitude
15.70532°
Altitude
427.575 km
Speed
7.659 km/s
True Right ascension
23h 04m 14s
True Declination
0° 00' 00"
Sunlit
Object was in full shadow at epoch
Visualization orbit readout
Latitude
Unknown
Longitude
Unknown
Altitude
Unknown
Speed
Unknown
Apparent Right ascension
Unknown
Apparent Declination
Unknown
Sunlit
N/A
Visualization observer readout
Local Sidereal Time
15:37:12
Azimuth
Unknown
Elevation
Unknown
Doppler factor
Unknown
Orbital elements
Apogee altitude
441.186 km
Perigee altitude
429.963 km
Semi-major axis
6,813.712 km
Eccentricity
0.00082
Inclination
34.9368°
RAAN
346.0616°
Arg. of periapsis
309.951°
True anomaly
50.121°
Mean anomaly
50.0486°
Eccentric anomaly
50.08479°
Mean motion
3.85894 °/min
Orbital period
93.29 mins
BSTAR
0.00041869
Loading maneuver chart data...
Computing Atmospheric mass density...
Loading historical data...
Loading historical data...
Loading historical data...
Loading historical data...
Loading historical data...
Loading historical data...
Loading historical data...

Documentation

Showing up to 5 results
|